Location: Al Mulaqqa?ah
(24.1833°N, 32.8833°E)
Time: 19:57:23
(UTC+00:00)

Okean 2 - Pass Details

Date: 26 September 2021
Orbit: 559 x 576 km, 82.5° (Epoch: 21 October)

Event Time Altitude Azimuth Distance (km) Brightness Sun altitude
Rises 16:41:51 0° 348° (NNW) 2,743 7.1 -14.8°
Reaches altitude 10° 16:44:03 10° 343° (NNW) 1,847 6.3 -15.3°
Maximum altitude 16:48:00 53° 267° (W) 695 4.2 -16.2°
Drops below altitude 10° 16:51:58 10° 190° (S) 1,847 6.0 -17.1°
Sets 16:54:11 0° 185° (S) 2,742 6.9 -17.6°
